This demonstration page uses our WeatherBlox Daily Observations layout. Learn more.

Left ArrowRight Arrow

Hourly Observations for May 2, 2018

Temp ( °F °C ) Dew Point ( °F °C ) Humidity (%) Winds ( mph kmh ) Pressure ( in mb ) Visibility ( mi km ) Precip ( " mm )
12:53 am 00:53 Cloudy 55 12.8 52 11.1 90 90 NNE 12 19 29.79 1009 10 16 0.00 0.00
1:16 am 01:16 Partly Cloudy 54 12 52 11 94 94 NNE 10 17 29.83 1010 10 16 0.00 0.00
1:53 am 01:53 Clear 53 11.7 51 10.6 93 93 E 6 9 29.81 1009 10 16 0.00 0.00
2:17 am 02:17 Mostly Cloudy 54 12 52 11 94 94 NNE 8 13 29.83 1010 10 16 0.00 0.00
2:53 am 02:53 Cloudy 54 12.2 51 10.6 90 90 NNE 9 15 29.82 1010 10 16 0.00 0.00
3:53 am 03:53 Cloudy 54 12.2 50 10 87 87 NNE 12 19 29.81 1010 10 16 0.00 0.00
4:53 am 04:53 Cloudy 54 12.2 50 10 87 87 NNE 14 22 29.84 1010 10 16 0.00 0.00
5:53 am 05:53 Cloudy 53 11.7 50 10 89 89 NNE 13 20 29.85 1011 10 16 0.00 0.00
6:53 am 06:53 Cloudy 53 11.7 50 10 89 89 NE 10 17 29.86 1011 10 16 0.00 0.00
7:53 am 07:53 Cloudy 52 11.1 51 10.6 97 97 NE 10 17 29.88 1012 8 13 0.00 0.03
8:53 am 08:53 Cloudy with Mist and Fog 52 11.1 50 10 93 93 NNE 13 20 29.89 1012 6 10 0.00 0.00
9:53 am 09:53 Cloudy 52 11.1 50 10 93 93 NNE 15 24 29.92 1013 7 11 0.00 0.00
10:26 am 10:26 Cloudy 52 11 52 11 100 100 NNE 14 22 29.94 1014 7 11 0.00 0.00
10:53 am 10:53 Cloudy 52 11.1 51 10.6 97 97 NE 16 26 29.89 1012 8 13 0.00 0.03
11:53 am 11:53 Cloudy 54 12.2 52 11.1 93 93 NE 15 24 29.90 1013 9 14 0.00 0.00
12:24 pm 12:24 Cloudy 55 13 52 11 88 88 ENE 15 24 29.91 1013 10 16 0.00 0.00
12:53 pm 12:53 Cloudy 56 13.3 51 10.6 84 84 NE 17 28 29.91 1013 10 16 0.00 0.00
1:25 pm 13:25 Cloudy 57 14 52 11 82 82 NE 16 26 29.88 1012 10 16 0.00 0.00
1:53 pm 13:53 Cloudy 56 13.3 51 10.6 84 84 ENE 16 26 29.90 1012 10 16 0.00 0.00
2:31 pm 14:31 Cloudy 55 13 52 11 88 88 NNE 15 24 29.91 1013 10 16 0.00 0.00
2:53 pm 14:53 Cloudy 56 13.3 52 11.1 87 87 NNE 15 24 29.89 1012 10 16 0.00 0.00
3:53 pm 15:53 Cloudy 56 13.3 51 10.6 84 84 NE 10 17 29.91 1013 10 16 0.00 0.00
4:10 pm 16:10 Cloudy 55 13 52 11 88 88 NE 18 30 29.85 1011 10 16 0.00 0.00
4:53 pm 16:53 Cloudy 55 12.8 50 10 83 83 ENE 18 30 29.85 1011 10 16 0.00 0.00
5:03 pm 17:03 Cloudy 55 12.8 51 10.6 87 87 NE 16 26 29.83 1010 10 16 0.00 0.00
5:53 pm 17:53 Cloudy 56 13.3 51 10.6 84 84 NE 13 20 29.87 1012 10 16 0.00 0.00
6:46 pm 18:46 Cloudy 55 12.8 51 10.6 87 87 ENE 16 26 29.80 1009 9 14 0.00 0.00
6:53 pm 18:53 Cloudy 55 12.8 51 10.6 87 87 ENE 17 28 29.84 1011 9 14 0.00 0.00
7:37 pm 19:37 Mostly Sunny 54 12.2 51 10.6 90 90 NE 15 24 29.83 1010 7 11 0.00 0.00
7:53 pm 19:53 Sunny 54 12.2 51 10.6 90 90 NE 13 20 29.84 1010 7 11 0.00 0.00
8:53 pm 20:53 Clear 52 11.1 50 10 93 93 NE 13 20 29.83 1010 9 14 0.00 0.00
9:53 pm 21:53 Clear 50 10 48 8.9 93 93 NE 10 17 29.86 1011 9 14 0.00 0.00
10:53 pm 22:53 Clear 50 10 48 8.9 93 93 NNE 9 15 29.88 1012 8 13 0.00 0.00
11:53 pm 23:53 Mostly Cloudy 50 10 48 8.9 93 93 NNE 6 9 29.91 1013 7 11 0.00 0.00

Powered by AerisWeather